Find Starlink 34736

NORAD ID: 64846 Int'l Des: 2025-152 Owner: SPXS Country: US Constellation: starlink operational
LEOCIRCULARRETROGRADESSO

Live Position

Loading 3D Globe...

About Starlink 34736

Description loading...

Upcoming Passes

Passes for default location (London). Set your location on the main map for personalized predictions.

Altitude History

Loading altitude history...

Two-Line Element Set

1 64846U 25152E 26106.60155647 .00002063 00000-0 14716-3 0 9995
2 64846 97.6039 322.8904 0001844 90.4739 269.6700 15.05647666 41125
Epoch: Apr 16, 2026 • Age: 16 hours

Current Status

Altitude 578.0 km
Velocity 7.57 km/s
Sub-Earth Point -75.07°S, 57.33°E
Launch Date Jul 19, 2025
Age 0.7 years
Type internet

Technical Details

Classification Payload
Mass 575.00 kg
Dry Mass 530.00 kg
Total Mass 575.00 kg
Length 0.30 m
Diameter 4.10 m
Span 29.00 m
Shape Box + pan
Manufacturer SPXS
Bus Type Starlink V2MO
Phase Status In Orbit
Owner/State SPXS/US

Most Searched